Location: Burland Observatory
(39.4088°N, 105.4217°W)
Time: 10:50:59
(UTC-07:00)

SR - Pass Details

Date: 08 December 2019
Orbit: 574 x 882 km, 66.7° (Epoch: 27 January)

Event Time Altitude Azimuth Distance (km) Brightness Sun altitude
Rises 09:31:57 0° 200° (SSW) 3,179 ? 19.6°
Reaches altitude 10° 09:34:15 10° 198° (SSW) 2,304 ? 19.9°
Maximum altitude 09:39:32 70° 115° (ESE) 869 ? 20.4°
Drops below altitude 10° 09:45:17 10° 33° (NNE) 2,489 ? 21.0°
Sets 09:47:50 0° 32° (NNE) 3,454 ? 21.3°
